Temperature
22 22 21 21 21 21 20 20 20 20 20 20 19 19 19 18 18 18 18 18 18 18 18 18 18 18 18 17 17 17 17 17 17 17 16 16 16 16 16 15 15 15 15
22 22 21 21 21 20 20 20 20 20 20 20 19 19 19 18 18 18 18 18 18 18 18 17 17 17 17 17 17 17 17 17 17 16 16 16 16 15 15 15 15 15 15
21 21 21 21 21 20 20 20 20 20 20 19 19 19 19 18 18 18 18 18 18 18 17 17 17 17 17 17 17 17 17 17 17 16 16 16 16 15 15 15 14 14 14
21 21 21 21 21 21 20 20 20 19 19 19 19 19 19 18 18 18 18 18 18 18 17 17 17 17 17 17 17 17 16 16 16 16 16 16 15 15 15 14 14 14 14
21 21 20 20 20 20 20 20 19 19 19 19 19 19 18 18 18 18 18 18 17 17 17 17 17 17 17 17 16 16 16 16 16 16 16 15 15 15 15 14 14 14 14
21 21 20 20 20 20 19 19 19 19 19 19 19 18 18 18 17 18 18 17 17 17 17 17 17 17 17 16 16 16 16 16 16 16 15 15 15 15 15 14 14 13 13
21 20 20 20 19 19 19 19 19 19 19 18 18 18 18 18 18 18 18 17 17 17 17 17 16 16 16 16 16 16 16 16 16 16 15 15 15 15 14 14 14 13 13
20 20 20 19 19 19 19 19 19 19 18 18 18 18 18 18 18 18 18 17 17 17 17 16 16 16 16 16 16 16 15 15 15 15 15 15 14 14 14 14 13 13 13
20 19 19 19 19 19 19 19 18 18 18 18 18 18 18 17 17 17 17 17 17 16 16 16 16 16 16 16 15 15 15 15 15 15 15 14 14 14 14 13 13 13 12
19 19 19 19 19 18 18 18 18 18 18 18 18 18 18 17 17 17 17 16 16 16 16 16 16 15 15 15 15 15 15 15 14 14 14 14 14 14 13 13 13 13 12
19 19 18 18 18 18 18 18 18 17 17 17 17 17 17 17 17 17 16 16 16 15 15 15 15 15 15 15 15 15 14 14 14 14 14 14 13 13 13 13 13 12 12
18 18 18 18 18 18 18 18 17 17 17 17 17 17 16 16 16 16 16 16 15 15 15 15 15 15 15 14 14 14 14 14 13 13 13 13 13 13 13 13 12 12 12
17 17 17 17 17 17 17 17 17 17 16 16 16 16 16 16 16 16 16 15 15 15 14 14 14 14 14 14 14 14 14 13 13 13 12 12 12 12 12 12 12 11 11
17 17 17 17 17 17 17 17 17 16 16 16 16 16 16 15 15 15 15 15 14 14 14 14 14 14 13 13 13 13 13 13 13 12 12 12 12 12 11 11 11 11 11
16 16 16 16 16 16 16 16 16 16 16 16 16 15 15 15 15 15 14 14 14 14 14 13 13 13 13 13 13 13 13 12 12 12 12 11 11 11 11 11 11 10 10
15 15 16 16 16 16 16 16 16 16 15 15 15 15 15 15 14 14 14 14 14 13 13 13 13 12 12 12 12 12 12 12 12 12 11 11 11 11 11 10 10 10 10
15 15 15 15 15 15 15 15 15 15 15 15 15 15 14 14 14 14 13 13 13 13 12 12 12 12 12 11 11 11 11 11 11 11 11 10 10 10 10 10 10 10 10
14 14 14 14 15 15 15 15 15 15 14 14 14 14 14 14 13 13 13 13 12 12 12 11 11 11 11 11 11 10 10 10 10 10 10 9 9 9 9 9 9 9 9
14 14 14 14 14 14 14 14 14 14 13 13 13 13 13 13 13 12 12 12 12 11 11 11 11 10 10 10 10 10 10 9 9 9 9 9 9 9 9 9 9 9 8
13 13 13 13 13 13 13 13 13 13 13 13 12 12 12 12 12 12 11 11 11 11 10 10 10 10 10 10 9 9 9 9 8 8 8 8 8 8 8 8 8 8 8
12 12 12 13 13 13 13 13 12 12 12 12 12 12 12 12 11 11 11 11 10 10 10 10 9 9 9 9 9 8 8 8 8 8 8 7 7 7 7 7 8 8 8
11 11 12 12 12 12 12 12 12 12 12 11 11 11 11 11 11 11 10 10 10 9 9 9 9 8 8 8 8 8 7 7 7 7 7 7 7 7 7 7 7 7 7
11 11 11 11 11 11 11 11 11 11 11 11 11 11 10 10 10 10 10 9 9 9 9 8 8 8 8 7 7 7 7 7 7 7 7 6 6 6 6 6 7 7 7
11 11 11 11 11 11 11 11 11 11 11 10 10 10 10 10 9 9 9 9 8 8 8 8 7 7 7 7 7 7 6 6 6 6 6 6 6 6 6 6 6 6 6
11 10 10 10 11 10 10 10 10 10 10 10 9 9 9 9 9 9 8 8 8 8 7 7 7 7 7 6 6 6 6 6 6 6 6 6 5 5 5 5 5 6 6
10 10 10 10 10 10 10 10 10 9 9 9 9 9 8 8 8 8 8 8 7 7 7 6 6 6 6 6 6 6 6 6 5 5 5 5 5 5 5 5 5 5 5
Wind_Speed
9 8 7 8 7 7 6 6 5 4 4 4 5 5 4 4 4 4 4 4 4 3 3 2 2 2 2 3 2 2 2 1 2 1 1 3 3 4 5 5 6 7 6
9 9 8 7 7 7 7 6 5 5 4 4 4 5 5 5 4 4 4 3 3 3 2 2 2 2 2 2 2 2 1 1 2 2 2 2 2 4 4 3 3 5 6
9 8 8 8 7 7 6 5 5 5 5 5 5 4 4 4 4 4 4 3 3 2 2 2 3 2 2 2 2 2 2 2 1 2 3 2 2 3 3 3 3 3 4
8 8 8 8 7 7 6 6 6 5 5 4 4 4 4 3 3 3 4 3 3 2 2 3 3 2 2 3 3 2 2 2 1 2 2 3 3 3 3 3 3 3 3
6 7 7 6 6 6 5 5 5 5 6 4 4 4 4 4 4 3 3 4 3 3 3 3 3 3 2 1 2 1 2 2 1 1 2 2 2 3 3 3 2 3 2
4 4 5 5 5 6 6 5 5 5 4 4 4 4 4 3 2 2 2 2 2 3 3 3 3 3 3 3 2 1 1 2 1 1 1 2 3 3 3 3 3 2 2
3 3 3 4 5 5 6 5 6 5 5 4 4 4 4 3 3 3 2 2 3 3 3 3 5 3 4 3 3 4 3 3 2 1 1 1 2 2 3 3 3 2 2
2 2 2 3 4 4 4 4 4 4 4 5 4 4 3 4 5 3 3 4 4 3 3 4 4 2 3 2 3 3 3 3 3 3 1 1 1 2 3 3 3 3 2
2 2 3 3 3 3 4 4 4 4 4 4 4 4 4 4 5 5 4 2 3 3 3 3 3 3 3 4 3 3 2 2 2 3 3 2 2 3 3 2 2 3 2
1 1 2 2 3 3 4 4 4 4 4 4 4 4 4 4 6 5 5 3 3 3 3 3 3 3 4 5 4 3 3 3 2 2 2 2 3 4 5 4 3 3 2
1 2 2 2 3 4 4 3 3 3 4 4 4 4 4 4 6 7 7 4 3 2 2 2 1 4 5 5 4 3 3 2 2 3 3 3 2 3 3 3 2 2 2
2 2 3 3 3 3 2 3 3 3 4 4 4 3 3 3 4 6 8 7 3 2 2 0 1 4 4 4 3 3 3 3 2 2 2 2 2 3 2 3 2 2 2
2 2 3 3 2 2 2 3 3 3 4 3 3 3 2 3 3 6 7 5 4 2 1 2 2 3 4 3 5 4 3 3 2 2 2 2 2 2 2 3 2 2 2
3 3 3 3 3 2 2 2 2 2 2 2 2 2 2 2 2 2 2 2 2 2 1 1 2 3 3 3 3 4 3 3 3 2 1 1 2 2 3 2 2 3 2
3 3 4 3 2 2 1 1 0 0 1 1 1 1 1 1 1 2 2 2 2 2 2 2 1 1 2 3 3 3 3 3 3 2 2 1 1 2 2 2 2 2 3
4 4 4 3 2 2 2 2 5 3 2 2 1 2 2 3 3 3 2 2 2 2 2 2 2 2 2 2 2 1 1 2 2 2 2 2 1 2 2 2 2 2 2
4 4 4 3 2 2 2 2 2 2 3 4 4 5 5 4 4 3 3 3 2 3 1 1 1 1 1 1 1 0 0 1 0 0 1 1 1 1 2 2 2 2 2
5 4 3 3 3 2 2 2 2 3 2 1 2 3 4 4 4 3 3 3 2 2 1 1 1 1 1 2 2 2 2 2 2 1 1 1 1 1 2 2 1 1 2
4 3 3 3 2 1 1 2 1 1 2 3 3 2 2 3 4 2 2 1 2 2 1 1 1 1 1 2 2 2 1 1 2 2 2 2 2 2 2 2 1 1 2
2 2 3 2 2 2 2 2 1 1 2 3 2 2 2 3 2 2 2 1 1 1 1 1 1 1 2 2 2 1 1 2 2 1 1 1 2 2 2 2 2 2 3
3 2 3 3 2 1 1 1 1 1 2 2 2 2 2 2 2 2 2 2 1 1 2 2 2 2 2 2 2 1 2 2 2 2 2 2 2 2 2 2 2 2 2
3 2 2 1 1 0 1 1 1 1 2 2 2 2 2 1 2 2 3 3 2 2 2 2 2 2 2 2 2 2 2 2 2 2 3 3 3 3 3 3 3 3 3
3 1 1 0 0 1 1 1 1 2 2 2 2 3 2 2 2 2 3 3 3 2 2 2 2 2 2 3 3 3 3 2 3 3 3 3 3 2 3 3 4 3 3
2 1 0 0 0 1 1 1 2 2 2 2 3 3 2 2 2 2 3 3 2 2 2 2 3 4 5 5 6 6 6 6 5 3 3 3 3 3 3 3 3 4 3
1 1 1 1 0 0 1 1 2 2 2 2 2 2 2 2 2 2 2 3 3 3 3 3 4 6 8 8 7 7 8 9 9 7 5 3 3 3 3 3 3 4 3
3 3 2 1 1 1 1 1 2 1 2 2 2 2 2 2 2 2 3 3 3 3 3 4 7 7 8 7 8 9 9 9 10 9 6 3 3 3 3 3 4 4 4
Wind_Direction
182 184 186 183 193 203 211 211 210 206 197 193 195 200 206 206 206 212 230 225 225 233 246 232 234 247 279 289 287 270 256 222 229 204 118 116 112 114 131 137 143 144 147
179 179 185 182 188 198 203 204 198 204 203 197 200 202 211 211 207 215 238 238 229 227 233 255 260 250 239 268 290 281 270 216 197 200 167 138 138 147 147 158 162 156 150
175 177 182 187 189 196 201 196 194 198 205 204 201 205 217 216 207 215 225 237 239 232 227 237 250 255 266 261 266 284 292 272 194 196 188 157 154 162 157 172 177 164 168
173 178 182 191 190 192 197 195 194 196 204 206 207 210 212 220 225 223 217 224 234 230 225 230 236 228 238 250 253 253 270 285 245 207 193 165 155 162 171 188 189 178 183
169 180 183 185 188 188 193 197 194 198 203 197 205 207 210 216 229 224 223 223 221 230 227 228 225 201 185 211 259 277 270 253 245 220 198 163 162 167 191 192 189 177 189
170 183 178 184 191 194 197 195 192 197 201 195 200 201 212 222 191 185 216 251 241 240 240 245 230 194 185 185 186 186 235 244 243 237 219 196 182 176 171 184 182 187 199
167 184 184 187 187 191 200 191 193 196 198 198 203 202 199 178 150 156 185 233 241 247 247 248 259 231 174 186 189 205 215 206 198 219 242 241 200 175 178 196 203 206 211
166 186 194 202 202 198 198 197 194 193 196 200 205 200 193 187 171 169 184 223 237 239 239 236 241 226 208 195 198 206 210 200 204 206 197 235 202 165 188 201 202 200 223
169 191 215 212 206 205 205 202 199 197 202 203 198 192 193 180 169 171 169 221 232 243 248 240 229 211 196 185 206 221 218 197 177 149 146 141 123 142 161 181 202 203 224
34 254 232 221 207 209 216 212 203 198 205 204 199 192 194 187 176 181 184 216 226 229 230 230 218 203 176 178 204 222 228 226 193 162 156 178 186 182 184 201 214 219 238
329 285 275 249 225 212 205 206 212 215 209 208 207 200 197 189 172 184 188 218 243 234 233 228 191 164 165 179 203 222 227 227 211 198 191 183 179 177 190 201 211 206 228
312 277 267 262 251 229 212 215 213 219 220 215 213 203 190 177 177 187 192 209 247 267 262 256 114 134 168 195 208 227 238 245 222 211 205 194 190 186 185 193 196 210 224
302 288 269 262 260 243 228 227 220 218 226 224 212 206 189 175 171 174 189 213 245 257 306 66 113 161 177 198 210 211 214 227 220 220 217 206 203 188 173 181 192 217 241
281 277 262 240 240 239 255 243 213 236 232 223 218 217 184 149 131 135 161 177 195 215 236 166 159 192 222 223 206 206 213 229 220 215 214 206 186 175 178 182 196 204 220
279 272 270 260 238 206 172 17 168 316 230 253 260 214 196 181 169 172 175 186 198 192 181 180 174 177 209 216 211 209 206 211 217 214 204 207 208 194 188 188 200 217 226
284 279 273 261 236 208 164 109 65 88 81 87 138 148 109 110 129 126 135 165 189 167 164 186 187 191 203 208 203 197 202 210 213 193 194 198 203 209 214 206 199 219 233
293 293 290 280 260 240 212 191 164 95 74 78 93 113 127 134 124 123 125 120 129 151 168 196 189 182 170 156 131 107 80 45 33 183 218 228 211 229 240 241 234 237 242
298 293 289 285 276 262 244 238 211 184 159 117 96 119 143 155 152 148 134 123 108 134 149 132 102 70 76 78 69 49 41 40 30 18 30 18 356 308 296 278 261 265 279
302 305 307 296 284 273 269 263 230 183 159 149 136 125 161 168 157 143 139 143 145 141 138 117 93 68 60 67 62 58 53 50 43 27 23 4 353 337 317 306 296 297 273
293 289 275 268 260 246 242 243 221 165 153 148 136 128 139 140 130 128 143 148 116 98 81 86 78 68 68 69 57 44 43 51 43 34 11 349 354 344 326 321 307 287 273
280 269 263 252 250 257 244 239 243 144 135 130 125 116 139 161 147 131 119 106 92 90 85 81 82 74 70 68 60 46 55 45 36 16 354 336 338 326 309 293 283 283 280
291 281 275 264 239 179 143 134 150 140 125 120 128 120 117 106 95 100 102 96 84 71 75 80 83 78 74 76 69 44 44 46 27 2 348 342 338 326 315 307 305 300 297
291 285 281 298 81 112 135 125 132 125 131 134 128 115 111 94 94 102 102 99 95 90 91 92 90 77 71 70 67 58 46 25 0 359 346 330 320 314 312 308 307 310 310
312 316 285 127 109 122 118 104 102 107 105 109 113 117 130 137 131 121 118 112 104 98 91 91 86 75 66 65 62 55 42 26 9 1 341 318 316 322 322 319 321 322 320
348 26 24 24 56 116 119 115 108 107 109 112 110 115 130 125 116 116 121 115 110 104 97 95 88 78 73 69 62 56 45 36 25 9 344 325 317 321 326 327 329 322 328
30 45 46 39 48 86 111 104 98 113 126 134 128 121 124 118 117 112 114 110 111 110 105 93 87 83 82 73 70 66 50 34 20 5 345 323 326 342 347 341 337 336 335
Height
1506 1508 1511 1512 1514 1515 1517 1519 1520 1521 1522 1523 1523 1523 1524 1524 1524 1525 1525 1525 1526 1526 1526 1526 1526 1526 1526 1526 1526 1526 1526 1526 1525 1525 1525 1525 1526 1526 1526 1526 1526 1526 1526
1504 1506 1508 1510 1511 1513 1514 1516 1517 1518 1519 1520 1520 1521 1521 1522 1522 1522 1522 1523 1523 1523 1523 1523 1524 1524 1523 1523 1523 1523 1524 1523 1523 1522 1523 1523 1523 1524 1524 1524 1524 1524 1524
1501 1503 1505 1507 1508 1510 1512 1513 1514 1515 1516 1517 1518 1518 1519 1519 1519 1520 1520 1521 1521 1521 1521 1521 1521 1521 1521 1521 1521 1521 1521 1521 1521 1521 1521 1521 1521 1521 1521 1522 1522 1522 1522
1500 1501 1502 1504 1505 1507 1509 1510 1511 1512 1513 1514 1515 1515 1516 1516 1517 1517 1518 1518 1518 1518 1518 1518 1518 1518 1517 1518 1518 1518 1518 1518 1518 1518 1518 1518 1518 1518 1519 1519 1519 1520 1520
1498 1499 1500 1501 1503 1505 1506 1507 1509 1509 1510 1511 1512 1512 1512 1513 1514 1514 1515 1515 1515 1515 1515 1515 1515 1514 1515 1515 1515 1515 1515 1515 1515 1515 1516 1515 1515 1515 1516 1516 1517 1517 1517
1496 1497 1498 1499 1500 1501 1503 1504 1505 1506 1507 1508 1508 1508 1509 1510 1511 1511 1512 1512 1512 1512 1512 1512 1512 1511 1511 1511 1512 1512 1512 1512 1512 1512 1512 1512 1512 1513 1513 1513 1514 1514 1514
1493 1495 1496 1497 1498 1498 1499 1500 1501 1502 1503 1503 1504 1505 1505 1505 1506 1507 1508 1508 1508 1509 1509 1508 1509 1509 1509 1508 1508 1509 1509 1509 1509 1510 1510 1509 1510 1510 1510 1511 1511 1511 1511
1491 1492 1493 1494 1495 1496 1497 1497 1498 1498 1499 1500 1500 1501 1502 1502 1503 1503 1503 1504 1504 1505 1505 1505 1505 1505 1506 1505 1506 1506 1506 1506 1506 1506 1506 1506 1507 1507 1508 1508 1508 1508 1509
1489 1490 1491 1492 1492 1493 1493 1494 1494 1495 1495 1496 1497 1498 1498 1499 1499 1500 1500 1500 1501 1500 1501 1501 1502 1502 1502 1502 1503 1503 1503 1503 1503 1503 1503 1503 1504 1504 1504 1505 1505 1505 1505
1486 1487 1488 1488 1489 1489 1490 1491 1491 1492 1493 1494 1494 1494 1495 1495 1496 1496 1496 1496 1496 1496 1497 1497 1498 1498 1498 1498 1499 1499 1499 1499 1500 1500 1500 1500 1500 1501 1501 1501 1502 1502 1502
1484 1484 1485 1485 1485 1486 1487 1488 1489 1489 1490 1490 1490 1491 1491 1492 1492 1493 1493 1493 1493 1493 1493 1493 1493 1494 1494 1495 1495 1495 1496 1496 1496 1497 1496 1496 1497 1497 1497 1498 1498 1499 1499
1481 1481 1482 1482 1483 1483 1484 1485 1485 1486 1487 1487 1487 1487 1488 1488 1489 1489 1489 1490 1490 1490 1490 1490 1490 1491 1491 1491 1491 1492 1492 1493 1493 1494 1493 1493 1493 1494 1494 1494 1495 1495 1496
1478 1478 1478 1479 1480 1480 1480 1481 1482 1483 1483 1483 1484 1484 1485 1485 1485 1486 1486 1486 1486 1487 1487 1487 1487 1487 1488 1488 1488 1488 1489 1489 1490 1490 1490 1490 1490 1491 1491 1491 1491 1492 1492
1475 1475 1476 1475 1476 1477 1477 1478 1478 1479 1480 1480 1480 1481 1481 1481 1482 1482 1482 1482 1483 1483 1483 1483 1483 1484 1484 1484 1484 1485 1485 1485 1486 1486 1487 1487 1488 1488 1488 1487 1487 1487 1488
1472 1472 1473 1473 1473 1473 1474 1475 1475 1476 1476 1477 1477 1477 1477 1477 1478 1479 1479 1479 1479 1479 1479 1479 1479 1480 1480 1480 1481 1481 1481 1482 1482 1483 1484 1484 1485 1485 1485 1484 1484 1485 1485
1469 1469 1470 1470 1470 1471 1471 1471 1471 1472 1473 1474 1474 1475 1474 1475 1475 1475 1475 1476 1476 1476 1476 1476 1476 1476 1477 1477 1478 1478 1478 1478 1478 1479 1480 1481 1481 1482 1482 1482 1482 1482 1482
1466 1466 1467 1467 1467 1468 1468 1468 1468 1469 1469 1470 1471 1471 1471 1471 1472 1472 1472 1472 1473 1473 1473 1473 1474 1474 1474 1474 1475 1475 1475 1475 1476 1476 1477 1477 1478 1479 1479 1479 1479 1479 1479
1463 1463 1463 1464 1465 1465 1465 1466 1466 1466 1467 1467 1468 1468 1469 1469 1469 1469 1470 1470 1470 1471 1471 1471 1472 1472 1472 1472 1472 1473 1473 1473 1473 1473 1474 1474 1475 1475 1476 1476 1476 1476 1476
1460 1460 1460 1461 1462 1462 1462 1463 1463 1463 1464 1464 1465 1465 1466 1466 1467 1467 1468 1468 1468 1469 1469 1469 1470 1470 1470 1471 1471 1471 1471 1472 1472 1471 1471 1471 1472 1473 1474 1474 1474 1473 1473
1457 1457 1457 1458 1458 1458 1459 1459 1460 1460 1461 1461 1462 1463 1464 1464 1464 1465 1465 1466 1466 1466 1467 1467 1468 1468 1469 1469 1469 1469 1469 1470 1470 1470 1470 1470 1470 1470 1471 1471 1471 1471 1470
1454 1455 1455 1455 1455 1456 1456 1457 1458 1458 1458 1459 1460 1461 1462 1462 1463 1463 1463 1464 1464 1464 1465 1465 1466 1466 1467 1467 1467 1467 1467 1467 1468 1468 1467 1467 1467 1467 1468 1468 1468 1468 1468
1452 1452 1452 1452 1453 1453 1453 1454 1455 1456 1456 1457 1458 1458 1459 1460 1461 1461 1461 1462 1463 1463 1463 1464 1464 1465 1465 1465 1465 1465 1465 1465 1465 1465 1465 1465 1465 1465 1465 1466 1465 1465 1465
1450 1450 1450 1450 1450 1450 1451 1452 1453 1454 1454 1455 1456 1457 1458 1458 1459 1459 1460 1461 1462 1462 1462 1463 1463 1463 1463 1463 1463 1463 1463 1463 1463 1462 1463 1463 1463 1463 1463 1463 1463 1462 1462
1448 1448 1448 1448 1448 1449 1450 1450 1451 1452 1453 1453 1454 1455 1456 1457 1457 1458 1459 1459 1460 1461 1461 1461 1462 1462 1462 1462 1461 1461 1461 1461 1461 1460 1460 1460 1460 1460 1460 1460 1460 1459 1459
1447 1446 1447 1447 1447 1448 1449 1449 1450 1450 1451 1452 1453 1454 1454 1456 1456 1457 1458 1458 1459 1459 1460 1460 1460 1460 1460 1460 1460 1459 1459 1459 1459 1458 1458 1458 1457 1457 1457 1457 1457 1456 1456
1446 1445 1445 1446 1446 1447 1448 1448 1448 1449 1450 1450 1451 1452 1453 1454 1455 1456 1457 1457 1458 1458 1459 1459 1459 1459 1458 1458 1458 1457 1457 1457 1457 1456 1455 1455 1455 1455 1455 1454 1454 1454 1454